Regional Weather Roundup
Issued by NWS Glasgow, MT

Home | Current Version | Previous Version | Text Only | Print | Product List | Glossary On
Versions: 1 2 3 4 5 6 7 8 9 10 11 12 13 14 15 16 17 18 19 20 21 22 23 24 25 26 27 28 29 30 31 32 33 34 35 36 37 38 39 40 41 42 43 44 45 46 47 48 49 50
000
ASUS45 KGGW 030615
RWRGGW
HOURLY REGIONAL WEATHER ROUNDUP FOR NORTHEAST MONTANA
NATIONAL WEATHER SERVICE GLASGOW MONTANA
1200 AM MDT MON AUG 03 2015

NOTE: "FAIR" INDICATES FEW OR NO CLOUDS BELOW 12,000 FEET WITH NO
SIGNIFICANT WEATHER AND/OR OBSTRUCTIONS TO VISISBILITY.

NORTHEAST MONTANA


CITY           SKY/WX    TMP DP  RH WIND       PRES   REMARKS
GLASGOW        CLEAR     63  48  58 E13       30.01S
6HR MIN TEMP:  63; 6HR MAX TEMP:  83;

PLENTYWOOD       N/A     59  48  67 N6          N/A
WOLF POINT     CLEAR     61  48  62 E5        30.03R
JORDAN           N/A     66  48  52 E6        30.02R
WINNETT          N/A     65  46  50 NE3         N/A
SIDNEY         CLEAR     61  46  59 NW6       30.03R
GLENDIVE         N/A    N/A N/A N/A MISG        N/A
MALTA            N/A     62  53  72 E2          N/A
SCOBEY           N/A     55  45  68 CALM      30.03

FORT PECK REPORTS


CITY           SKY/WX    TMP DP  RH WIND       PRES   REMARKS
FORT PECK        N/A     68  49  50 NE15        N/A
THE PINES        N/A     69  48  47 E7          N/A

SOUTHEAST MONTANA


CITY           SKY/WX    TMP DP  RH WIND       PRES   REMARKS
BILLINGS       CLEAR     70  43  37 N9        30.03R
MILES CITY     CLEAR     68  48  48 NE9       30.01R
BAKER          CLEAR     59  46  62 SE6       30.05R
LIVINGSTON     CLEAR     69  42  37 E10       30.04R

CENTRAL MONTANA


CITY           SKY/WX    TMP DP  RH WIND       PRES   REMARKS
HAVRE          CLEAR     70  52  52 E12       29.96S
LEWISTOWN      CLEAR     67  45  45 E13       30.05S
GREAT FALLS    CLEAR     70  47  43 E10       29.96S
CUT BANK       CLEAR     68  46  45 SE12      29.98S
HELENA         PTCLDY    72  40  31 CALM      29.98R
BUTTE          PTCLDY    62  36  37 SE7       30.08S
BOZEMAN        PTCLDY    67  42  40 W5        30.01S

WESTERN MONTANA


CITY           SKY/WX    TMP DP  RH WIND       PRES   REMARKS
MISSOULA       PTCLDY    68  34  28 N5        29.91R
KALISPELL      NOT AVBL

NORTH DAKOTA


CITY           SKY/WX    TMP DP  RH WIND       PRES   REMARKS
WILLISTON      CLEAR     63  49  60 N3        30.03R
DICKINSON      CLEAR     59  49  69 SE3       30.03R
MINOT          CLEAR     58  50  75 SW8       29.98R
BISMARCK       CLEAR     60  54  80 SW6       29.99R

SOUTHERN SASKATCHEWAN


CITY           SKY/WX    TMP DP  RH WIND       PRES   REMARKS
REGINA         PTCLDY    54  52  94 W6        30.01S
ESTEVAN        CLEAR     52  48  87 NW7       30.02R
SWIFT CURRENT  CLEAR     55  52  88 S8        30.03S




USA.gov is the U.S. government's official web portal to all federal, state and local government web resources and services.